K6OUA-11 Weather Reports


time (UTC)temp
F
wind
direction
speed
knots
gust
knots
rain 1hr
in
rain 24hr
in
rain mn
in
humidity
%
barometer
mb
20260509051231 59 268 0.0 0.0 0.00 0.00 0.00 86
20260509051029 59 268 0.0 0.0 0.00 0.00 0.00 86
20260509050828 59 268 0.0 0.0 0.00 0.00 0.00 86
20260509050624 59 268 0.0 0.0 0.00 0.00 0.00 86
20260509050424 59 268 0.0 0.0 0.00 0.00 0.00 85
20260509050222 59 268 0.0 0.0 0.00 0.00 0.00 85
20260509050020 59 268 0.0 0.0 0.00 0.00 0.00 85
20260509045818 59 268 0.0 0.0 0.00 0.00 0.00 86
20260509045616 59 268 0.0 0.0 0.00 0.00 0.00 86
20260509045414 60 268 0.0 0.0 0.00 0.00 0.00 86
20260509045011 60 268 0.0 0.0 0.00 0.00 0.00 86
20260509044809 60 268 0.0 0.0 0.00 0.00 0.00 86
20260509044405 60 268 0.0 0.0 0.00 0.00 0.00 86
20260509044203 60 268 0.0 0.0 0.00 0.00 0.00 85
20260509044001 60 268 0.0 0.0 0.00 0.00 0.00 85
20260509043759 60 268 0.0 0.0 0.00 0.00 0.00 85
20260509043557 60 268 0.0 0.0 0.00 0.00 0.00 85
20260509043355 60 268 0.0 0.0 0.00 0.00 0.00 85
20260509043153 60 268 0.0 0.0 0.00 0.00 0.00 85
20260509042951 60 268 0.0 0.0 0.00 0.00 0.00 85
20260509042751 60 268 0.0 0.0 0.00 0.00 0.00 85
20260509042546 60 268 0.0 0.0 0.00 0.00 0.00 84
20260509042144 60 268 0.0 0.0 0.00 0.00 0.00 84
20260509041740 60 268 0.0 0.0 0.00 0.00 0.00 84
20260509041538 60 268 0.0 0.0 0.00 0.00 0.00 84
20260509041336 60 268 0.0 0.0 0.00 0.00 0.00 84
20260509041134 60 268 0.0 0.0 0.00 0.00 0.00 83
20260509040931 61 268 0.0 0.0 0.00 0.00 0.00 83
20260509040731 61 268 0.0 0.0 0.00 0.00 0.00 83
20260509040529 61 268 0.0 0.0 0.00 0.00 0.00 83
20260509040327 61 268 0.0 0.0 0.00 0.00 0.00 83
20260509040123 61 268 0.0 0.0 0.00 0.00 0.00 83
20260509035923 61 268 0.0 0.0 0.00 0.00 0.00 83
20260509035720 61 268 0.0 0.0 0.00 0.00 0.00 83
20260509035519 61 268 0.0 0.0 0.00 0.00 0.00 84
20260509035317 61 268 0.0 0.0 0.00 0.00 0.00 83
20260509035115 61 268 0.0 0.0 0.00 0.00 0.00 83
20260509034711 61 268 0.0 2.6 0.00 0.00 0.00 83
20260509034509 61 268 0.0 2.6 0.00 0.00 0.00 84
20260509034106 61 275 0.9 2.6 0.00 0.00 0.00 83
20260509033903 61 295 2.6 2.6 0.00 0.00 0.00 83
20260509033257 61 257 0.0 0.9 0.00 0.00 0.00 83
20260509033056 61 257 0.0 0.9 0.00 0.00 0.00 83
20260509032853 61 257 0.0 0.9 0.00 0.00 0.00 83
20260509032250 61 272 0.9 4.3 0.00 0.00 0.00 83
20260509032046 62 274 1.7 4.3 0.00 0.00 0.00 83
20260509031844 62 277 1.7 4.3 0.00 0.00 0.00 83
20260509031440 62 293 2.6 4.3 0.00 0.00 0.00 82
20260509030835 62 296 1.7 4.3 0.00 0.00 0.00 82
20260509030633 62 282 1.7 5.2 0.00 0.00 0.00 82
20260509030229 62 286 2.6 5.2 0.00 0.00 0.00 82
20260509030027 62 279 3.5 5.2 0.00 0.00 0.00 81
20260509025826 62 284 3.5 5.2 0.00 0.00 0.00 81
20260509025624 62 298 3.5 4.3 0.00 0.00 0.00 81
20260509025422 62 281 4.3 4.3 0.00 0.00 0.00 81
20260509025220 63 288 2.6 5.2 0.00 0.00 0.00 80
20260509025018 63 288 2.6 5.2 0.00 0.00 0.00 80
20260509024614 63 295 2.6 4.3 0.00 0.00 0.00 80
20260509024211 63 288 3.5 4.3 0.00 0.00 0.00 79
20260509024009 63 298 2.6 4.3 0.00 0.00 0.00 79
20260509023806 63 286 2.6 4.3 0.00 0.00 0.00 79
20260509023604 64 296 2.6 4.3 0.00 0.00 0.00 79
20260509023402 63 286 0.9 4.3 0.00 0.00 0.00 78
20260509023006 63 300 2.6 5.2 0.00 0.00 0.00 78
20260509022757 64 281 3.5 5.2 0.00 0.00 0.00 78
20260509021747 64 289 3.5 5.2 0.00 0.00 0.00 77
20260509021141 64 288 4.3 6.1 0.00 0.00 0.00 77
20260509020940 64 268 5.2 6.1 0.00 0.00 0.00 77
20260509020738 64 274 3.5 6.1 0.00 0.00 0.00 77
20260509020536 64 267 5.2 6.1 0.00 0.00 0.00 76
20260509020334 64 293 2.6 6.1 0.00 0.00 0.00 76
20260509020132 65 282 4.3 7.8 0.00 0.00 0.00 76
20260509015728 65 291 5.2 7.0 0.00 0.00 0.00 75
20260509015325 65 277 2.6 7.0 0.00 0.00 0.00 75
20260509015123 65 274 4.3 8.7 0.00 0.00 0.00 75
20260509014921 65 260 6.1 8.7 0.00 0.00 0.00 74
20260509014719 65 275 4.3 7.8 0.00 0.00 0.00 75
20260509014517 65 284 4.3 7.8 0.00 0.00 0.00 75
20260509014315 65 260 5.2 7.8 0.00 0.00 0.00 75
20260509014113 65 264 6.1 7.8 0.00 0.00 0.00 74
20260509013912 65 262 5.2 7.8 0.00 0.00 0.00 74
20260509013709 65 270 6.1 8.7 0.00 0.00 0.00 74
20260509013508 66 292 5.2 8.7 0.00 0.00 0.00 74
20260509013306 66 271 6.1 8.7 0.00 0.00 0.00 74
20260509013104 65 293 6.1 8.7 0.00 0.00 0.00 73
20260509012903 66 267 7.0 8.7 0.00 0.00 0.00 73
20260509012700 66 264 7.8 9.6 0.00 0.00 0.00 72
20260509012458 67 262 4.3 9.6 0.00 0.00 0.00 72
20260509012256 66 272 5.2 9.6 0.00 0.00 0.00 72
20260509011853 67 267 5.2 9.6 0.00 0.00 0.00 71
20260509011651 67 253 5.2 8.7 0.00 0.00 0.00 71
20260509011448 67 272 6.1 8.7 0.00 0.00 0.00 71
20260509011045 66 267 8.7 10.4 0.00 0.00 0.00 72
20260509010843 67 271 5.2 10.4 0.00 0.00 0.00 72
20260509010439 67 271 7.8 11.3 0.00 0.00 0.00 71
20260509005834 67 262 7.8 12.2 0.00 0.00 0.00 70
20260509005430 68 279 5.2 10.4 0.00 0.00 0.00 69
20260509004420 69 264 4.3 11.3 0.00 0.00 0.00 68
20260509004017 68 261 8.7 13.9 0.00 0.00 0.00 68
20260509003612 69 254 7.0 12.2 0.00 0.00 0.00 67
20260509003208 69 278 6.1 11.3 0.00 0.00 0.00 67
20260509003007 69 255 6.1 11.3 0.00 0.00 0.00 66
20260509002805 69 268 7.0 11.3 0.00 0.00 0.00 67
20260509002603 69 262 5.2 11.3 0.00 0.00 0.00 67
20260509002401 69 264 8.7 11.3 0.00 0.00 0.00 67
20260509002158 69 278 10.4 10.4 0.00 0.00 0.00 66
20260509001957 69 291 7.0 10.4 0.00 0.00 0.00 67
20260509001755 69 261 7.8 9.6 0.00 0.00 0.00 66
20260509001351 70 291 5.2 9.6 0.00 0.00 0.00 65
20260509000947 71 278 7.0 10.4 0.00 0.00 0.00 64
20260509000745 70 262 7.0 9.6 0.00 0.00 0.00 63
20260509000341 71 284 6.1 9.6 0.00 0.00 0.00 63
20260508235736 71 254 8.7 9.6 0.00 0.00 0.00 63
20260508235533 71 272 3.5 9.6 0.00 0.00 0.00 64
20260508235332 70 258 4.3 9.6 0.00 0.00 0.00 62
20260508234928 71 323 3.5 11.3 0.00 0.00 0.00 63
20260508234725 71 251 2.6 9.6 0.00 0.00 0.00 63
20260508234524 71 281 7.8 9.6 0.00 0.00 0.00 62
20260508234321 72 268 7.0 9.6 0.00 0.00 0.00 62
20260508234120 72 279 7.8 10.4 0.00 0.00 0.00 63
20260508233312 72 265 9.6 8.7 0.00 0.00 0.00 61
20260508233110 72 267 6.1 8.7 0.00 0.00 0.00 62
20260508232908 72 241 4.3 8.7 0.00 0.00 0.00 62
20260508232706 72 255 7.8 9.6 0.00 0.00 0.00 61
20260508232504 72 253 4.3 9.6 0.00 0.00 0.00 62
20260508232306 71 257 7.0 13.0 0.00 0.00 0.00 63
20260508232100 71 279 8.7 13.0 0.00 0.00 0.00 63
20260508231858 71 270 7.8 13.0 0.00 0.00 0.00 63
20260508231657 71 279 7.0 12.2 0.00 0.00 0.00 63
20260508231455 70 262 7.8 12.2 0.00 0.00 0.00 63
20260508231252 71 268 7.8 12.2 0.00 0.00 0.00 63
20260508230849 71 296 5.2 12.2 0.00 0.00 0.00 62
20260508230444 72 272 9.6 9.6 0.00 0.00 0.00 60
20260508230242 73 279 3.5 10.4 0.00 0.00 0.00 61
20260508230040 72 284 6.1 10.4 0.00 0.00 0.00 60
20260508225435 73 239 7.8 9.6 0.00 0.00 0.00 61
20260508225233 73 262 7.0 9.6 0.00 0.00 0.00 60
20260508224828 73 264 8.7 9.6 0.00 0.00 0.00 61
20260508224627 72 241 6.1 11.3 0.00 0.00 0.00 61
20260508224021 71 272 7.8 13.0 0.00 0.00 0.00 61
20260508223819 72 264 7.0 8.7 0.00 0.00 0.00 61
20260508223616 73 255 8.7 8.7 0.00 0.00 0.00 60
20260508223414 73 271 7.0 8.7 0.00 0.00 0.00 59
20260508222203 72 260 8.7 10.4 0.00 0.00 0.00 60
20260508221355 74 264 5.2 10.4 0.00 0.00 0.00 59
20260508220952 73 182 3.5 9.6 0.00 0.00 0.00 59
20260508220547 73 264 1.7 11.3 0.00 0.00 0.00 62
20260508220345 72 247 2.6 11.3 0.00 0.00 0.00 61
20260508220144 72 261 7.8 10.4 0.00 0.00 0.00 61
20260508215941 73 255 5.2 10.4 0.00 0.00 0.00 60
20260508215740 72 250 4.3 12.2 0.00 0.00 0.00 61
20260508215538 72 247 3.5 12.2 0.00 0.00 0.00 62
20260508215335 72 268 9.6 12.2 0.00 0.00 0.00 62
20260508214931 73 260 8.7 13.9 0.00 0.00 0.00 61
20260508214730 72 267 10.4 9.6 0.00 0.00 0.00 60
20260508214528 73 257 4.3 9.6 0.00 0.00 0.00 59
20260508214326 73 279 3.5 9.6 0.00 0.00 0.00 60
20260508213922 72 282 7.8 10.4 0.00 0.00 0.00 61
20260508213720 72 272 3.5 12.2 0.00 0.00 0.00 62
20260508213518 72 264 9.6 12.2 0.00 0.00 0.00 61
20260508213318 72 272 3.5 9.6 0.00 0.00 0.00 61
20260508213114 73 274 1.7 9.6 0.00 0.00 0.00 61
20260508212912 72 270 7.0 9.6 0.00 0.00 0.00 62
20260508212710 72 270 7.8 11.3 0.00 0.00 0.00 61
20260508212508 72 265 7.8 11.3 0.00 0.00 0.00 61
20260508212306 72 267 1.7 11.3 0.00 0.00 0.00 62
20260508211700 72 262 7.0 14.8 0.00 0.00 0.00 61
20260508211256 72 265 6.1 13.0 0.00 0.00 0.00 63
20260508211055 72 274 7.8 13.0 0.00 0.00 0.00 62
20260508210651 72 274 7.0 13.0 0.00 0.00 0.00 62
20260508210247 72 260 7.8 12.2 0.00 0.00 0.00 63
20260508210045 72 271 7.0 12.2 0.00 0.00 0.00 62
20260508205843 72 268 8.7 12.2 0.00 0.00 0.00 62
20260508205640 72 275 6.1 11.3 0.00 0.00 0.00 61
20260508204833 72 243 7.0 14.8 0.00 0.00 0.00 61
20260508204631 72 253 7.8 13.0 0.00 0.00 0.00 62
20260508204429 72 277 13.0 13.0 0.00 0.00 0.00 60
20260508204227 72 296 2.6 12.2 0.00 0.00 0.00 61
20260508204025 72 286 3.5 12.2 0.00 0.00 0.00 60
20260508203823 72 275 7.0 12.2 0.00 0.00 0.00 61
20260508203621 73 254 11.3 10.4 0.00 0.00 0.00 60
20260508203217 72 260 7.0 10.4 0.00 0.00 0.00 59
20260508202813 73 291 4.3 13.0 0.00 0.00 0.00 59
20260508202611 72 358 2.6 13.0 0.00 0.00 0.00 60
20260508202409 72 244 3.5 13.0 0.00 0.00 0.00 60
20260508202207 72 275 7.8 11.3 0.00 0.00 0.00 62
20260508201400 71 229 3.5 12.2 0.00 0.00 0.00 63
20260508201157 71 275 7.0 11.3 0.00 0.00 0.00 62
20260508200956 71 278 6.1 11.3 0.00 0.00 0.00 63
20260508200754 70 261 4.3 12.2 0.00 0.00 0.00 63
20260508200552 71 262 6.1 12.2 0.00 0.00 0.00 63
20260508200350 70 257 3.5 12.2 0.00 0.00 0.00 63
20260508200148 71 289 7.0 11.3 0.00 0.00 0.00 63
20260508195945 70 271 7.8 11.3 0.00 0.00 0.00 62
20260508195744 71 253 7.8 11.3 0.00 0.00 0.00 64
20260508195341 71 277 7.0 11.3 0.00 0.00 0.00 64
20260508195138 70 257 7.0 11.3 0.00 0.00 0.00 67
20260508194734 69 265 7.8 11.3 0.00 0.00 0.00 65
20260508194533 70 251 10.4 11.3 0.00 0.00 0.00 63
20260508194331 69 289 5.2 11.3 0.00 0.00 0.00 65
20260508194128 70 254 5.2 10.4 0.00 0.00 0.00 65
20260508193927 70 265 5.2 10.4 0.00 0.00 0.00 64
20260508193724 70 264 1.7 11.3 0.00 0.00 0.00 64
20260508193522 70 270 4.3 11.3 0.00 0.00 0.00 67
20260508193320 69 284 7.0 11.3 0.00 0.00 0.00 66
20260508193119 69 277 4.3 9.6 0.00 0.00 0.00 68
20260508192916 69 271 7.8 9.6 0.00 0.00 0.00 66
20260508192714 69 270 7.0 8.7 0.00 0.00 0.00 65
20260508191907 68 284 4.3 9.6 0.00 0.00 0.00 67
20260508191705 69 239 6.1 9.6 0.00 0.00 0.00 67
20260508191301 68 278 7.0 9.6 0.00 0.00 0.00 68
20260508191059 68 292 6.1 9.6 0.00 0.00 0.00 68
20260508190858 68 277 6.1 9.6 0.00 0.00 0.00 68
20260508190655 68 278 1.7 8.7 0.00 0.00 0.00 69
20260508190454 68 288 4.3 8.7 0.00 0.00 0.00 69
20260508190252 68 271 5.2 8.7 0.00 0.00 0.00 70
20260508190051 67 267 3.5 8.7 0.00 0.00 0.00 71
20260508185848 67 272 6.1 8.7 0.00 0.00 0.00 70
20260508185646 67 298 3.5 10.4 0.00 0.00 0.00 70
20260508185242 67 258 6.1 10.4 0.00 0.00 0.00 72
20260508185040 67 277 5.2 10.4 0.00 0.00 0.00 71
20260508184838 67 270 4.3 10.4 0.00 0.00 0.00 72
20260508184637 67 261 2.6 9.6 0.00 0.00 0.00 72
20260508184233 67 288 0.9 8.7 0.00 0.00 0.00 72
20260508183627 65 278 4.3 8.7 0.00 0.00 0.00 73
20260508183425 66 270 7.8 8.7 0.00 0.00 0.00 73
20260508183221 66 270 8.7 8.7 0.00 0.00 0.00 73
20260508183022 66 265 7.8 8.7 0.00 0.00 0.00 73
20260508182820 65 264 5.2 10.4 0.00 0.00 0.00 74
20260508182618 65 241 7.8 10.4 0.00 0.00 0.00 75
20260508182414 65 270 6.1 10.4 0.00 0.00 0.00 75
20260508182214 65 248 6.1 9.6 0.00 0.00 0.00 76
20260508182012 65 291 7.0 9.6 0.00 0.00 0.00 76
20260508181810 65 272 7.8 9.6 0.00 0.00 0.00 76
20260508181608 64 298 5.2 9.6 0.00 0.00 0.00 77
20260508181406 64 292 5.2 9.6 0.00 0.00 0.00 76
20260508181205 64 270 6.1 9.6 0.00 0.00 0.00 77
20260508181003 64 268 4.3 9.6 0.00 0.00 0.00 77
20260508180801 64 255 9.6 9.6 0.00 0.00 0.00 78
20260508180559 63 285 7.0 9.6 0.00 0.00 0.00 78
20260508180155 64 271 8.7 10.4 0.00 0.00 0.00 78
20260508175953 63 302 3.5 10.4 0.00 0.00 0.00 78
20260508175749 63 270 5.2 8.7 0.00 0.00 0.00 78
20260508175550 63 258 7.8 8.7 0.00 0.00 0.00 80
20260508175347 62 264 7.0 8.7 0.00 0.00 0.00 79
20260508175145 63 262 5.2 10.4 0.00 0.00 0.00 80
20260508174944 62 268 7.8 10.4 0.00 0.00 0.00 80
20260508174742 62 268 7.8 10.4 0.00 0.00 0.00 79
20260508174339 63 291 7.8 10.4 0.00 0.00 0.00 79
20260508174138 63 289 6.1 11.3 0.00 0.00 0.00 79
20260508173934 62 285 6.1 11.3 0.00 0.00 0.00 80
20260508173127 62 282 8.7 8.7 0.00 0.00 0.00 81
20260508172925 62 270 6.1 8.7 0.00 0.00 0.00 82
20260508172723 62 279 6.1 7.0 0.00 0.00 0.00 81
20260508172519 61 264 6.1 7.0 0.00 0.00 0.00 81
20260508172318 62 293 6.1 7.0 0.00 0.00 0.00 82
20260508172117 62 180 0.0 7.0 0.00 0.00 0.00 83
20260508171915 62 291 6.1 7.0 0.00 0.00 0.00 83
20260508171512 61 254 5.2 8.7 0.00 0.00 0.00 85
20260508171310 61 281 6.1 8.7 0.00 0.00 0.00 83
20260508171108 61 285 3.5 8.7 0.00 0.00 0.00 83
20260508170906 61 289 6.1 8.7 0.00 0.00 0.00 84
20260508170704 61 264 6.1 8.7 0.00 0.00 0.00 86
20260508170502 60 278 7.0 8.7 0.00 0.00 0.00 87
20260508170300 60 302 5.2 9.6 0.00 0.00 0.00 86
20260508170058 60 279 7.8 9.6 0.00 0.00 0.00 86
20260508165856 60 279 7.8 9.6 0.00 0.00 0.00 87
20260508165654 59 300 3.5 8.7 0.00 0.00 0.00 87
20260508165451 59 277 7.8 8.7 0.00 0.00 0.00 87
20260508165250 59 316 3.5 7.0 0.00 0.00 0.00 86
20260508165049 59 291 5.2 7.0 0.00 0.00 0.00 85
20260508164847 59 274 3.5 7.0 0.00 0.00 0.00 86
20260508164645 59 264 4.3 7.0 0.00 0.00 0.00 88
20260508164442 59 315 1.7 7.0 0.00 0.00 0.00 87
20260508164241 59 265 0.9 7.0 0.00 0.00 0.00 88
20260508163837 59 292 4.3 7.0 0.00 0.00 0.00 89
20260508163635 59 181 0.0 7.0 0.00 0.00 0.00 89
20260508163434 59 243 0.9 7.0 0.00 0.00 0.00 90
20260508163231 59 275 4.3 7.0 0.00 0.00 0.00 90
20260508163030 58 305 4.3 7.0 0.00 0.00 0.00 90
20260508162828 58 284 4.3 7.0 0.00 0.00 0.00 90
20260508162422 58 286 5.2 7.8 0.00 0.00 0.00 91
20260508162220 58 296 4.3 6.1 0.00 0.00 0.00 90
20260508162020 58 281 1.7 6.1 0.00 0.00 0.00 91
20260508161818 58 264 4.3 6.1 0.00 0.00 0.00 91
20260508161617 58 282 3.5 6.1 0.00 0.00 0.00 91
20260508161414 58 275 3.5 6.1 0.00 0.00 0.00 91
20260508161010 58 289 2.6 2.6 0.00 0.00 0.00 93
20260508160606 58 277 1.7 3.5 0.00 0.00 0.00 93
20260508160405 58 270 0.0 3.5 0.00 0.00 0.00 93
20260508160201 58 289 0.0 4.3 0.00 0.00 0.00 93
20260508160001 58 285 1.7 4.3 0.00 0.00 0.00 93
20260508155757 58 296 1.7 5.2 0.00 0.00 0.00 93
20260508155154 58 272 1.7 3.5 0.00 0.00 0.00 94
20260508154951 58 264 2.6 3.5 0.00 0.00 0.00 94
20260508154750 57 201 0.0 1.7 0.00 0.00 0.00 95
20260508154547 57 178 0.9 1.7 0.00 0.00 0.00 95
20260508154344 57 298 0.0 1.7 0.00 0.00 0.00 94
20260508154143 57 309 0.9 3.5 0.00 0.00 0.00 95
20260508153942 57 281 0.0 3.5 0.00 0.00 0.00 95
20260508153740 57 281 0.0 2.6 0.00 0.00 0.00 95
20260508153538 57 281 0.0 2.6 0.00 0.00 0.00 95
20260508153134 57 243 0.0 1.7 0.00 0.00 0.00 95
20260508152933 57 285 0.9 1.7 0.00 0.00 0.00 95
20260508152730 57 300 0.9 1.7 0.00 0.00 0.00 95
20260508152527 56 302 0.9 1.7 0.00 0.00 0.00 95
20260508152327 56 293 0.9 1.7 0.00 0.00 0.00 95
20260508152125 57 274 0.0 2.6 0.00 0.00 0.00 95
20260508151720 56 240 0.0 3.5 0.00 0.00 0.00 95
20260508151116 56 295 1.7 2.6 0.00 0.00 0.00 95
20260508150913 56 251 0.0 2.6 0.00 0.00 0.00 95
20260508150712 56 271 1.7 3.5 0.00 0.00 0.00 95
20260508150510 56 241 0.0 3.5 0.00 0.00 0.00 95
20260508150308 56 278 2.6 0.0 0.00 0.00 0.00 95
20260508150106 56 284 2.6 0.0 0.00 0.00 0.00 95
20260508145904 56 262 0.0 0.0 0.00 0.00 0.00 95
20260508145702 56 262 0.0 0.0 0.00 0.00 0.00 95
20260508145500 56 262 0.0 0.0 0.00 0.00 0.00 95
20260508145259 56 262 0.0 0.0 0.00 0.00 0.00 95
20260508145056 55 262 0.0 0.0 0.00 0.00 0.00 95
20260508144653 55 262 0.0 0.0 0.00 0.00 0.00 95
20260508144450 55 262 0.0 0.0 0.00 0.00 0.00 95
20260508144248 55 262 0.0 0.0 0.00 0.00 0.00 95
20260508144047 55 262 0.0 0.0 0.00 0.00 0.00 94
20260508143643 55 262 0.0 0.9 0.00 0.00 0.00 93
20260508143240 56 262 0.0 0.0 0.00 0.00 0.00 94
20260508143037 56 305 0.0 0.0 0.00 0.00 0.00 95
20260508142836 56 305 0.0 0.0 0.00 0.00 0.00 95
20260508142634 55 305 0.0 0.0 0.00 0.00 0.00 95
20260508142432 55 305 0.0 0.0 0.00 0.00 0.00 95
20260508142028 55 305 0.0 0.0 0.00 0.00 0.00 95
20260508141826 54 305 0.0 0.0 0.00 0.00 0.00 95
20260508141624 54 305 0.0 0.0 0.00 0.00 0.00 95
20260508141422 54 305 0.0 0.0 0.00 0.00 0.00 95
20260508141219 54 305 0.0 0.0 0.00 0.00 0.00 95
20260508141018 54 305 0.0 0.0 0.00 0.00 0.00 95
20260508140816 54 305 0.0 0.0 0.00 0.00 0.00 95
20260508140614 54 305 0.0 0.0 0.00 0.00 0.00 95
20260508140412 54 305 0.0 0.0 0.00 0.00 0.00 95
20260508140210 54 305 0.0 0.0 0.00 0.00 0.00 95
20260508140007 53 305 0.0 0.0 0.00 0.00 0.00 95
20260508135807 53 305 0.0 0.0 0.00 0.00 0.00 95
20260508135605 53 305 0.0 0.0 0.00 0.00 0.00 95
20260508135403 53 305 0.0 0.0 0.00 0.00 0.00 95
20260508135201 53 305 0.0 0.0 0.00 0.00 0.00 95
20260508134959 53 305 0.0 0.0 0.00 0.00 0.00 95
20260508134757 53 305 0.0 0.0 0.00 0.00 0.00 94
20260508134555 53 305 0.0 0.0 0.00 0.00 0.00 94
20260508134354 53 305 0.0 0.0 0.00 0.00 0.00 94
20260508134152 53 305 0.0 0.0 0.00 0.00 0.00 94
20260508133748 53 305 0.0 0.0 0.00 0.00 0.00 95
20260508133545 53 305 0.0 0.0 0.00 0.00 0.00 95
20260508133344 53 305 0.0 0.0 0.00 0.00 0.00 95
20260508133142 53 305 0.0 0.0 0.00 0.00 0.00 95
20260508132940 53 305 0.0 0.0 0.00 0.00 0.00 95
20260508132738 53 305 0.0 0.0 0.00 0.00 0.00 95
20260508132536 53 305 0.0 0.0 0.00 0.00 0.00 94
20260508132334 53 305 0.0 0.0 0.00 0.00 0.00 94
20260508132131 53 305 0.0 0.0 0.00 0.00 0.00 94
20260508131729 53 305 0.0 0.0 0.00 0.00 0.00 94
20260508131526 53 305 0.0 0.0 0.00 0.00 0.00 95
20260508131327 53 305 0.0 0.0 0.00 0.00 0.00 94
20260508131325 53 305 0.0 0.0 0.00 0.00 0.00 95
20260508131123 53 305 0.0 0.0 0.00 0.00 0.00 94
20260508130921 53 305 0.0 0.0 0.00 0.00 0.00 94
20260508130719 53 305 0.0 0.0 0.00 0.00 0.00 94
20260508130517 53 305 0.0 0.0 0.00 0.00 0.00 94
20260508130316 53 305 0.0 0.0 0.00 0.00 0.00 94
20260508125911 53 305 0.0 0.0 0.00 0.00 0.00 94
20260508125708 53 305 0.0 0.0 0.00 0.00 0.00 94
20260508125508 53 305 0.0 0.0 0.00 0.00 0.00 94
20260508124902 53 305 0.0 0.0 0.00 0.00 0.00 94
20260508124700 53 305 0.0 0.0 0.00 0.00 0.00 94
20260508124458 53 305 0.0 0.0 0.00 0.00 0.00 94
20260508124256 53 305 0.0 0.0 0.00 0.00 0.00 94
20260508124208 53 305 0.0 0.0 0.00 0.00 0.00 94
20260508124055 53 305 0.0 0.0 0.00 0.00 0.00 94
20260508123852 53 305 0.0 0.0 0.00 0.00 0.00 94
20260508123651 53 305 0.0 0.0 0.00 0.00 0.00 94
20260508123449 53 305 0.0 0.0 0.00 0.00 0.00 94
20260508123247 53 305 0.0 0.0 0.00 0.00 0.00 94
20260508123045 53 305 0.0 0.0 0.00 0.00 0.00 94
20260508122641 53 305 0.0 0.0 0.00 0.00 0.00 94
20260508122237 54 305 0.0 0.0 0.00 0.00 0.00 94
20260508122036 53 305 0.0 0.0 0.00 0.00 0.00 94
20260508121834 53 305 0.0 0.0 0.00 0.00 0.00 94
20260508121632 53 305 0.0 0.0 0.00 0.00 0.00 94
20260508121430 53 305 0.0 0.0 0.00 0.00 0.00 94
20260508121228 53 305 0.0 0.0 0.00 0.00 0.00 94
20260508121026 53 305 0.0 0.0 0.00 0.00 0.00 94
20260508120824 53 305 0.0 0.0 0.00 0.00 0.00 94
20260508120622 53 305 0.0 0.0 0.00 0.00 0.00 94
20260508120420 53 305 0.0 0.0 0.00 0.00 0.00 94
20260508120218 53 305 0.0 0.0 0.00 0.00 0.00 94
20260508120015 53 305 0.0 0.0 0.00 0.00 0.00 94
20260508115814 53 305 0.0 0.0 0.00 0.00 0.00 94
20260508115613 53 305 0.0 0.0 0.00 0.00 0.00 94
20260508115410 53 305 0.0 0.0 0.00 0.00 0.00 94
20260508115208 53 305 0.0 0.0 0.00 0.00 0.00 93
20260508115007 53 305 0.0 0.0 0.00 0.00 0.00 93
20260508114805 54 305 0.0 0.0 0.00 0.00 0.00 93
20260508114603 54 305 0.0 0.0 0.00 0.00 0.00 93
20260508114401 54 305 0.0 0.0 0.00 0.00 0.00 93
20260508114159 54 305 0.0 0.0 0.00 0.00 0.00 93
20260508113957 54 305 0.0 0.0 0.00 0.00 0.00 93
20260508113553 54 305 0.0 0.0 0.00 0.00 0.00 93
20260508113355 54 305 0.0 0.0 0.00 0.00 0.00 93
20260508113149 54 305 0.0 0.0 0.00 0.00 0.00 93
20260508112948 54 305 0.0 0.0 0.00 0.00 0.00 93
20260508112746 54 305 0.0 0.0 0.00 0.00 0.00 93
20260508112544 54 305 0.0 0.0 0.00 0.00 0.00 93
20260508112342 54 305 0.0 0.0 0.00 0.00 0.00 93
20260508112140 54 305 0.0 0.0 0.00 0.00 0.00 93
20260508111736 54 305 0.0 0.0 0.00 0.00 0.00 93
20260508111332 54 305 0.0 0.0 0.00 0.00 0.00 93
20260508111131 54 305 0.0 0.0 0.00 0.00 0.00 93
20260508110929 54 305 0.0 0.0 0.00 0.00 0.00 93
20260508110727 54 305 0.0 0.0 0.00 0.00 0.00 93
20260508110524 54 305 0.0 0.0 0.00 0.00 0.00 93
20260508110323 54 305 0.0 0.0 0.00 0.00 0.00 93
20260508110121 54 305 0.0 0.0 0.00 0.00 0.00 93
20260508105919 54 305 0.0 0.0 0.00 0.00 0.00 92
20260508105719 54 305 0.0 0.0 0.00 0.00 0.00 92
20260508105515 54 305 0.0 0.0 0.00 0.00 0.00 92
20260508105112 54 305 0.0 0.0 0.00 0.00 0.00 92
20260508104910 54 305 0.0 0.0 0.00 0.00 0.00 92
20260508104709 54 305 0.0 0.0 0.00 0.00 0.00 92
20260508104506 54 305 0.0 0.0 0.00 0.00 0.00 92
20260508104304 54 305 0.0 0.0 0.00 0.00 0.00 92
20260508103900 54 305 0.0 0.0 0.00 0.00 0.00 92
20260508103658 54 305 0.0 0.0 0.00 0.00 0.00 92
20260508103456 55 305 0.0 0.0 0.00 0.00 0.00 92
20260508103254 55 305 0.0 0.0 0.00 0.00 0.00 92
20260508103052 55 305 0.0 0.0 0.00 0.00 0.00 92
20260508102850 55 305 0.0 0.0 0.00 0.00 0.00 92
20260508102446 55 305 0.0 0.0 0.00 0.00 0.00 92
20260508102244 55 305 0.0 0.0 0.00 0.00 0.00 92
20260508102043 55 305 0.0 0.0 0.00 0.00 0.00 92
20260508101841 55 305 0.0 0.0 0.00 0.00 0.00 92
20260508101639 55 305 0.0 0.0 0.00 0.00 0.00 92
20260508101437 55 305 0.0 0.0 0.00 0.00 0.00 92
20260508101235 55 305 0.0 0.0 0.00 0.00 0.00 91
20260508100428 55 305 0.0 0.0 0.00 0.00 0.00 91
20260508100226 55 305 0.0 0.0 0.00 0.00 0.00 91
20260508100024 55 305 0.0 0.0 0.00 0.00 0.00 91
20260508095620 55 305 0.0 0.0 0.00 0.00 0.00 91
20260508095419 55 305 0.0 0.0 0.00 0.00 0.00 91
20260508095015 55 305 0.0 0.0 0.00 0.00 0.00 91
20260508094812 55 305 0.0 0.0 0.00 0.00 0.00 91
20260508094611 55 305 0.0 0.0 0.00 0.00 0.00 91
20260508094409 55 305 0.0 0.0 0.00 0.00 0.00 91
20260508093803 55 305 0.0 0.0 0.00 0.00 0.00 91
20260508093601 55 305 0.0 0.0 0.00 0.00 0.00 91
20260508093157 55 305 0.0 0.0 0.00 0.00 0.00 90
20260508092955 55 305 0.0 0.0 0.00 0.00 0.00 90
20260508092753 55 305 0.0 0.0 0.00 0.00 0.00 90
20260508092551 55 305 0.0 0.0 0.00 0.00 0.00 90
20260508092147 55 305 0.0 0.0 0.00 0.00 0.00 90
20260508091542 56 305 0.0 0.0 0.00 0.00 0.00 90
20260508091338 56 305 0.0 0.0 0.00 0.00 0.00 89
20260508091138 56 305 0.0 0.0 0.00 0.00 0.00 90
20260508090936 56 305 0.0 0.0 0.00 0.00 0.00 90
20260508090734 56 305 0.0 0.0 0.00 0.00 0.00 89
20260508090533 56 305 0.0 0.0 0.00 0.00 0.00 89
20260508090331 56 305 0.0 0.0 0.00 0.00 0.00 89
20260508090127 56 305 0.0 0.9 0.00 0.00 0.00 89
20260508085927 56 305 0.0 0.9 0.00 0.00 0.00 89
20260508085725 56 305 0.0 2.6 0.00 0.00 0.00 90
20260508085523 56 305 0.0 2.6 0.00 0.00 0.00 90
20260508085319 56 299 0.9 2.6 0.00 0.00 0.00 90
20260508085119 56 265 0.0 5.2 0.00 0.00 0.00 90
20260508084917 56 265 0.0 5.2 0.00 0.00 0.00 90
20260508084715 56 279 3.5 0.0 0.00 0.00 0.00 90
20260508084514 56 257 0.0 0.0 0.00 0.00 0.00 90
20260508084311 56 257 0.0 0.0 0.00 0.00 0.00 89
20260508084110 56 257 0.0 0.0 0.00 0.00 0.00 89
20260508083908 56 257 0.0 0.0 0.00 0.00 0.00 89
20260508083705 56 257 0.0 0.0 0.00 0.00 0.00 89
20260508082900 56 257 0.0 3.5 0.00 0.00 0.00 89
20260508082656 56 286 1.7 0.0 0.00 0.00 0.00 89
20260508082455 56 164 0.0 0.0 0.00 0.00 0.00 89
20260508082252 56 164 0.0 0.0 0.00 0.00 0.00 88
20260508082051 56 164 0.0 0.0 0.00 0.00 0.00 88
20260508081849 56 164 0.0 0.0 0.00 0.00 0.00 88
20260508081647 56 164 0.0 0.0 0.00 0.00 0.00 88
20260508081445 57 164 0.0 0.0 0.00 0.00 0.00 88
20260508081243 57 164 0.0 0.0 0.00 0.00 0.00 88
20260508081041 57 164 0.0 0.0 0.00 0.00 0.00 88
20260508080839 57 164 0.0 0.0 0.00 0.00 0.00 88
20260508080233 57 164 0.0 0.0 0.00 0.00 0.00 87
20260508080032 57 164 0.0 0.0 0.00 0.00 0.00 87
20260508075830 57 164 0.0 0.0 0.00 0.00 0.00 87
20260508075628 57 164 0.0 0.0 0.00 0.00 0.00 87
20260508075426 57 164 0.0 0.0 0.00 0.00 0.00 87
20260508075021 57 164 0.0 0.0 0.00 0.00 0.00 87
20260508074618 57 164 0.0 0.0 0.00 0.00 0.00 87
20260508074417 57 164 0.0 0.0 0.00 0.00 0.00 87
20260508074013 57 164 0.0 0.0 0.00 0.00 0.00 87
20260508073609 57 164 0.0 0.0 0.00 0.00 0.00 87
20260508073407 57 164 0.0 0.0 0.00 0.00 0.00 87
20260508073205 57 164 0.0 0.0 0.00 0.00 0.00 87
20260508073003 57 164 0.0 0.0 0.00 0.00 0.00 87
20260508072802 57 164 0.0 0.0 0.00 0.00 0.00 87
20260508072557 57 164 0.0 0.0 0.00 0.00 0.00 87
20260508072357 57 164 0.0 0.0 0.00 0.00 0.00 87
20260508072155 57 164 0.0 0.0 0.00 0.00 0.00 87
20260508071954 57 164 0.0 0.0 0.00 0.00 0.00 87
20260508071752 57 164 0.0 0.9 0.00 0.00 0.00 87
20260508071549 57 164 0.0 0.9 0.00 0.00 0.00 87
20260508071349 57 164 0.0 0.9 0.00 0.00 0.00 87
20260508071144 57 164 0.0 0.0 0.00 0.00 0.00 87
20260508070944 57 288 0.0 0.0 0.00 0.00 0.00 87
20260508070742 57 288 0.0 0.0 0.00 0.00 0.00 87
20260508070540 57 288 0.0 0.0 0.00 0.00 0.00 86
20260508070338 57 288 0.0 0.0 0.00 0.00 0.00 87
20260508070136 57 288 0.0 0.0 0.00 0.00 0.00 87
20260508065934 57 288 0.0 0.0 0.00 0.00 0.00 86
20260508065732 57 288 0.0 0.0 0.00 0.00 0.00 86
20260508065530 57 288 0.0 0.0 0.00 0.00 0.00 86
20260508065329 57 288 0.0 0.0 0.00 0.00 0.00 86
20260508065127 58 288 0.0 0.0 0.00 0.00 0.00 86
20260508064925 58 288 0.0 0.0 0.00 0.00 0.00 86
20260508064723 58 288 0.0 0.0 0.00 0.00 0.00 86
20260508064319 58 288 0.0 0.0 0.00 0.00 0.00 85
20260508063916 58 288 0.0 0.0 0.00 0.00 0.00 85
20260508063714 58 288 0.0 0.0 0.00 0.00 0.00 85
20260508063514 58 288 0.0 0.0 0.00 0.00 0.00 85
20260508063309 58 288 0.0 0.0 0.00 0.00 0.00 84
20260508063107 58 288 0.0 0.0 0.00 0.00 0.00 84
20260508062704 58 288 0.0 0.0 0.00 0.00 0.00 84
20260508062502 58 288 0.0 0.0 0.00 0.00 0.00 84
20260508062300 59 288 0.0 0.0 0.00 0.00 0.00 84
20260508062058 59 288 0.0 0.0 0.00 0.00 0.00 84
20260508061857 59 288 0.0 0.0 0.00 0.00 0.00 84
20260508061653 59 288 0.0 0.0 0.00 0.00 0.00 84
20260508061452 59 288 0.0 0.0 0.00 0.00 0.00 84
20260508061251 59 288 0.0 0.0 0.00 0.00 0.00 84
20260508061049 59 288 0.0 0.0 0.00 0.00 0.00 84
20260508060847 59 288 0.0 0.0 0.00 0.00 0.00 84
20260508060443 59 288 0.0 0.0 0.00 0.00 0.00 84
20260508060241 59 288 0.0 0.0 0.00 0.00 0.00 84
20260508060039 59 288 0.0 0.0 0.00 0.00 0.00 83
20260508055837 59 288 0.0 0.0 0.00 0.00 0.00 83
20260508055635 59 288 0.0 0.0 0.00 0.00 0.00 83
20260508055232 59 288 0.0 1.7 0.00 0.00 0.00 83
20260508055030 59 288 0.0 1.7 0.00 0.00 0.00 83
20260508054828 59 288 0.0 1.7 0.00 0.00 0.00 83
20260508054626 59 302 0.9 0.0 0.00 0.00 0.00 84
20260508054424 59 286 0.0 0.0 0.00 0.00 0.00 84
20260508054222 59 286 0.0 0.0 0.00 0.00 0.00 84
20260508054020 59 286 0.0 0.0 0.00 0.00 0.00 84
20260508053820 59 286 0.0 3.5 0.00 0.00 0.00 83
20260508053617 59 286 0.0 3.5 0.00 0.00 0.00 83
20260508053414 59 286 0.0 3.5 0.00 0.00 0.00 83
20260508053011 60 302 3.5 2.6 0.00 0.00 0.00 83
20260508052809 60 296 2.6 1.7 0.00 0.00 0.00 83
20260508052605 60 298 0.9 1.7 0.00 0.00 0.00 81
20260508052203 60 286 0.0 0.0 0.00 0.00 0.00 81
20260508052000 60 286 0.0 0.0 0.00 0.00 0.00 81